Weather History for Fort Benning, GA

Change the Weather History Date:

Thursday, December 19, 2013

  Actual Average Record
Temperature  
Mean Temperature 46 °F -  
Max Temperature 67 °F 55 °F 75 °F (2006)
Min Temperature 26 °F 32 °F 17 °F (1996)
Degree Days  
Heating Degree Days 18    
Moisture  
Dew Point 30 °F    
Average Humidity 85    
Maximum Humidity 100    
Minimum Humidity 28    
Precipitation  
Precipitation 0.00 in - - ()
Sea Level Pressure  
Sea Level Pressure 30.28 in    
Wind  
Wind Speed 1 mph (SSE)    
Max Wind Speed 6 mph    
Max Gust Speed -    
Visibility 8 miles    
Events Fog    
Averages and records for this station are not official NWS values.
T = Trace of Precipitation, MM = Missing Value Source: NWS Daily Summary

Daily Weather History Graph

Daily Weather History Graph

Search for Another Location

Airport:

Trip Planner

Search our weather history database for the weather conditions in past years. The results will help you decide how hot, cold, wet, or windy it might be!

Date:

Astronomy

Dec. 19, 2013 Rise Set
Actual Time 7:36 AM EST 5:38 PM EST
Civil Twilight 7:09 AM EST 6:05 PM EST
Nautical Twilight 6:38 AM EST 6:35 PM EST
Astronomical Twilight 6:08 AM EST 7:05 PM EST
Moon 7:56 PM EST (12/19) 9:00 AM EST (12/19)
Length of Visible Light 10h 56m
Length of Day
10h 01m
Waning Gibbous, 95% of the Moon is Illuminated
Dec 19
Waning Gibbous
Dec 25
Last Quarter
Jan 1
New
Jan 7
First Quarter
Jan 15
Full

Hourly Weather History & Observations

Time (EST) Temp. Windchill Dew Point Humidity Pressure Visibility Wind Dir Wind Speed Gust Speed Precip Events Conditions
12:38 AM 30.2 °F - 30.2 °F 100% 30.29 in 8.0 mi Calm Calm - N/A   Clear
12:58 AM 28.9 °F - 28.6 °F 99% 30.30 in 7.0 mi Calm Calm - N/A   Clear
1:03 AM 28.4 °F - 28.4 °F 100% 30.29 in 10.0 mi Calm Calm - N/A   Clear
1:08 AM 28.4 °F - 28.4 °F 100% 30.29 in 5.0 mi Calm Calm - N/A   Clear
1:13 AM 28.4 °F - 26.6 °F 93% 30.29 in 3.0 mi Calm Calm - N/A   Clear
1:23 AM 28.4 °F - 28.4 °F 100% 30.30 in 2.5 mi Calm Calm - N/A   Clear
1:33 AM 28.4 °F - 28.4 °F 100% 30.29 in 3.0 mi Calm Calm - N/A   Clear
1:38 AM 28.4 °F - 28.4 °F 100% 30.30 in 10.0 mi Calm Calm - N/A   Clear
1:43 AM 28.4 °F - 28.4 °F 100% 30.30 in 6.0 mi Calm Calm - N/A   Clear
1:58 AM 28.2 °F - 28.0 °F 99% 30.31 in 9.0 mi Calm Calm - N/A   Clear
2:03 AM 28.4 °F - 28.4 °F 100% 30.29 in 10.0 mi Calm Calm - N/A   Clear
2:58 AM 28.4 °F - 28.0 °F 99% 30.31 in 10.0 mi Calm Calm - N/A   Clear
3:58 AM 28.2 °F - 27.9 °F 99% 30.31 in 10.0 mi Calm Calm - N/A   Clear
4:58 AM 26.4 °F - 26.1 °F 99% 30.30 in 10.0 mi West 2.3 mph - N/A   Clear
5:13 AM 26.6 °F - 24.8 °F 93% 30.30 in 7.0 mi Calm Calm - N/A   Clear
5:28 AM 26.6 °F - 26.6 °F 100% 30.29 in 10.0 mi Calm Calm - N/A   Clear
5:58 AM 26.6 °F - 26.6 °F 100% 30.32 in 1.8 mi NW 1.2 mph - N/A   Clear
6:03 AM 26.6 °F - 26.6 °F 100% 30.30 in 0.8 mi Calm Calm - N/A   Clear
6:08 AM 28.4 °F - 26.6 °F 93% 30.29 in 0.5 mi Calm Calm - N/A Fog Light Freezing Fog
6:13 AM 28.4 °F - 28.4 °F 100% 30.30 in 1.0 mi Calm Calm - N/A   Clear
6:18 AM 28.4 °F - 28.4 °F 100% 30.29 in 3.0 mi Calm Calm - N/A   Clear
6:23 AM 26.6 °F - 26.6 °F 100% 30.29 in 6.0 mi Calm Calm - N/A   Clear
6:38 AM 26.6 °F - 26.6 °F 100% 30.29 in 10.0 mi Calm Calm - N/A   Clear
6:58 AM 26.6 °F - 26.4 °F 99% 30.31 in 10.0 mi Calm Calm - N/A   Clear
7:58 AM 27.7 °F - 27.3 °F 99% 30.33 in 10.0 mi Calm Calm - N/A   Clear
8:58 AM 31.8 °F - 31.6 °F 99% 30.34 in 10.0 mi NW 2.3 mph - N/A   Clear
9:58 AM 40.3 °F - 36.5 °F 86% 30.36 in 10.0 mi Variable 1.2 mph - N/A   Clear
10:58 AM 50.5 °F - 33.6 °F 52% 30.35 in 10.0 mi SSE 4.6 mph - N/A   Clear
11:58 AM 57.6 °F - 34.3 °F 42% 30.32 in 10.0 mi Variable 5.8 mph - N/A   Clear
12:58 PM 62.4 °F - 34.7 °F 36% 30.26 in 10.0 mi ESE 4.6 mph - N/A   Clear
1:58 PM 66.0 °F - 32.4 °F 29% 30.24 in 10.0 mi Variable 1.2 mph - N/A   Clear
2:58 PM 67.3 °F - 33.1 °F 28% 30.21 in 10.0 mi SE 4.6 mph - N/A   Clear
3:58 PM 67.5 °F - 33.3 °F 28% 30.20 in 10.0 mi Variable 2.3 mph - N/A   Clear
4:58 PM 63.7 °F - 35.4 °F 35% 30.21 in 10.0 mi SSE 3.5 mph - N/A   Clear
5:58 PM 50.0 °F - 37.6 °F 62% 30.22 in 10.0 mi ESE 2.3 mph - N/A   Clear
6:58 PM 45.3 °F - 37.4 °F 74% 30.23 in 10.0 mi SSE 2.3 mph - N/A   Clear
7:58 PM 44.2 °F 42.7 °F 37.4 °F 77% 30.22 in 10.0 mi SE 3.5 mph - N/A   Clear
8:58 PM 41.5 °F - 37.4 °F 85% 30.23 in 10.0 mi Calm Calm - N/A   Clear
9:58 PM 38.3 °F - 36.1 °F 92% 30.22 in 10.0 mi Calm Calm - N/A   Clear
10:58 PM 37.6 °F - 34.9 °F 90% 30.21 in 10.0 mi Calm Calm - N/A   Clear
11:58 PM 35.4 °F - 35.1 °F 99% 30.20 in 10.0 mi SE 2.3 mph - N/A   Clear